Погода в Ношуле

Россия / Республика Коми     60°08′52″N   49°29′58″E
темп.,
°C
ветер,
м/с
пор.,
м/с
влажн.,
%
обл.,
%
осадки,
мм/ч
давл.,
гПа
погр.,
м
12 апреля, пн
пн1200:000зюз29952 0.0 1032168
03:00−2зюз27945 0.0 1035132
06:00−1зюз27915 0.0 1037157
09:00+6з25665 0.0 1038506
12:00+9з24465 0.0 10391103
15:00+10юз23475 0.0 10391209
18:00+6ююз228331 0.0 103829
21:00+2ююз268812 0.0 103897
13 апреля, вт
вт1300:00+1ю289116 0.0 1038141
03:000ю2894100 0.0 1037158
06:00+1ю31181100 0.0 1036268
09:00+6ююз41086100 0.0 1034481
12:00+8ю41086100 0.0 1032551
15:00+10ююз51185100 0.0 1030608
18:00+9ююз41290100 0.0 1028543
21:00+9ююз41495100 0.0 1027509
14 апреля, ср
ср1400:00+8ююз31295100 0.0 1027379
03:00+6ююз31096100 0.0 1027221
06:00+6ююз31090100 0.0 1026251
09:00+12юз496473 0.0 1025422
12:00+17юз5105097 0.0 10241126
15:00+17ююз595080 0.0 10231089
18:00+14ююз4116229 0.0 1022521
21:00+10ююз414765 0.0 1021393
15 апреля, чт
чт1500:00+9ююз4147654 0.0 1020369
03:00+7ююз31183100 0.0 1020263
06:00+7юз298369 0.0 1019267
09:00+12зсз246596 0.0 1019717
12:00+7с5783100 0.0 1021449
15:00+4ссв4791100 0.1 1023528
18:00+4ссв2695100 0.1 1023403
21:00+4с1492100 0.1 1024273
16 апреля, пт
пт1600:00+2ссв31074100 0.0 1024410
03:000ссв397795 0.0 1025284
06:000ссв37765 0.0 1026253
09:00+5св34515 0.0 10261172
12:00+7ссв34405 0.0 10261752
15:00+8с4636100 0.0 10252168
18:00+5с24495 0.0 1025101
21:00+2зсз116390 0.0 102513